Weather History for Lancaster, PA

Change the Weather History Date:

Wednesday, March 5, 2014

  Actual Average Record
Temperature  
Mean Temperature 26 °F -  
Max Temperature 36 °F 46 °F 64 °F (1983)
Min Temperature 15 °F 29 °F 11 °F (1978)
Degree Days  
Heating Degree Days 40    
Moisture  
Dew Point 9 °F    
Average Humidity 52    
Maximum Humidity 74    
Minimum Humidity 33    
Precipitation  
Precipitation 0.00 in - - ()
Sea Level Pressure  
Sea Level Pressure 30.29 in    
Wind  
Wind Speed 5 mph (North)    
Max Wind Speed 18 mph    
Max Gust Speed 26 mph    
Visibility 9 miles    
Events Rain    
Averages and records for this station are not official NWS values.
T = Trace of Precipitation, MM = Missing Value Source: NWS Daily Summary

Daily Weather History Graph

Daily Weather History Graph

Search for Another Location

Airport:

Trip Planner

Search our weather history database for the weather conditions in past years. The results will help you decide how hot, cold, wet, or windy it might be!

Date:

Astronomy

Mar. 05, 2014 Rise Set
Actual Time 6:32 AM EST 6:01 PM EST
Civil Twilight 6:05 AM EST 6:28 PM EST
Nautical Twilight 5:34 AM EST 6:59 PM EST
Astronomical Twilight 5:02 AM EST 7:31 PM EST
Moon 8:56 AM EST (3/5) 11:07 PM EST (3/5)
Length of Visible Light 12h 23m
Length of Day
11h 28m
Waxing Crescent, 23% of the Moon is Illuminated
Mar 5
Waxing Crescent
Mar 8
First Quarter
Mar 16
Full
Mar 23
Last Quarter
Mar 30
New

Hourly Weather History & Observations

Time (EST) Temp. Windchill Dew Point Humidity Pressure Visibility Wind Dir Wind Speed Gust Speed Precip Events Conditions
12:53 AM 19.0 °F 12.3 °F 9.0 °F 65% 30.24 in 10.0 mi SSE 4.6 mph - N/A   Clear
1:53 AM 19.0 °F - 7.0 °F 59% 30.22 in 9.0 mi Calm Calm - N/A   Clear
2:53 AM 18.0 °F - 7.0 °F 62% 30.22 in 9.0 mi Calm Calm - N/A   Clear
3:53 AM 16.0 °F - 8.1 °F 71% 30.21 in 8.0 mi Calm Calm - N/A   Clear
4:53 AM 16.0 °F - 8.1 °F 71% 30.23 in 7.0 mi Calm Calm - N/A   Clear
5:53 AM 15.1 °F - 8.1 °F 74% 30.24 in 6.0 mi Calm Calm - N/A   Haze
6:53 AM 15.1 °F - 8.1 °F 74% 30.26 in 6.0 mi Calm Calm - N/A   Haze
7:53 AM 18.0 °F - 10.9 °F 74% 30.26 in 5.0 mi Calm Calm - N/A   Haze
8:53 AM 21.9 °F - 7.0 °F 53% 30.27 in 6.0 mi Calm Calm - N/A   Haze
9:53 AM 26.1 °F 20.5 °F 10.0 °F 51% 30.27 in 5.0 mi WNW 4.6 mph - N/A   Haze
10:53 AM 28.9 °F 22.8 °F 9.0 °F 43% 30.26 in 10.0 mi WNW 5.8 mph - N/A   Clear
11:53 AM 32.0 °F 28.7 °F 9.0 °F 38% 30.25 in 10.0 mi West 3.5 mph - N/A   Mostly Cloudy
12:53 PM 34.0 °F 26.6 °F 10.9 °F 38% 30.23 in 10.0 mi WNW 9.2 mph - N/A   Overcast
1:53 PM 35.1 °F 26.9 °F 9.0 °F 34% 30.24 in 10.0 mi NW 11.5 mph - 0.00 in Rain Light Rain
2:53 PM 36.0 °F 29.6 °F 9.0 °F 33% 30.23 in 10.0 mi NNE 8.1 mph - 0.00 in   Overcast
3:53 PM 36.0 °F 28.5 °F 9.0 °F 33% 30.25 in 10.0 mi NNE 10.4 mph - N/A   Partly Cloudy
4:53 PM 35.1 °F 26.4 °F 9.0 °F 34% 30.27 in 10.0 mi North 12.7 mph - N/A   Clear
5:53 PM 33.1 °F 24.4 °F 12.0 °F 42% 30.30 in 10.0 mi North 11.5 mph - N/A   Clear
6:53 PM 30.9 °F 20.7 °F 10.9 °F 43% 30.33 in 10.0 mi North 13.8 mph - N/A   Mostly Cloudy
7:53 PM 28.9 °F 19.2 °F 12.0 °F 49% 30.38 in 10.0 mi NNE 11.5 mph - N/A   Clear
8:53 PM 27.0 °F 16.1 °F 10.0 °F 49% 30.41 in 10.0 mi NNE 12.7 mph - N/A   Clear
9:53 PM 25.0 °F 11.3 °F 9.0 °F 51% 30.43 in 10.0 mi North 18.4 mph 26.5 mph N/A   Clear
10:53 PM 23.0 °F 9.6 °F 9.0 °F 55% 30.44 in 10.0 mi NNE 16.1 mph - N/A   Clear
11:53 PM 21.0 °F 12.4 °F 8.1 °F 57% 30.46 in 10.0 mi NNE 6.9 mph - N/A   Clear